Location: Boulevard Gardens
(33.7270°N, 117.9906°W)
Time: 14:46:37
(UTC+00:00)

Daily predictions for brighter satellites

Satellite Brightness Start Highest point End
(mag) Time Altitude Azimuth Time Altitude Azimuth Time Altitude Azimuth
ARGOS Delta rocket 4.4 12:05:24 10° NNE 12:10:27 60° E 12:15:12 10° S
NOSS 3-4 (A) 3.6 12:11:28 32° S 12:14:11 63° ESE 12:20:09 10° NE
NOSS 3-4 (C) 3.7 12:11:25 30° S 12:14:19 62° ESE 12:20:17 10° NE
GPS 2-04 Rocket1 4.1 12:21:20 36° ESE 12:21:20 36° ESE 12:23:52 10° E
Cosmos 1606 3.6 12:29:46 42° NE 12:30:19 46° E 12:33:57 10° SSE
Cosmos 2263 Rocket 2.0 12:29:12 42° SSW 12:31:10 79° WNW 12:36:52 10° NNE
Cosmos 1386 Rocket 4.4 12:26:20 10° SSW 12:32:40 64° W 12:39:00 10° N
ATLAS 2AS CENTAUR R/B 3.2 12:25:39 10° SSW 12:33:27 73° ESE 12:41:23 10° NE
CENTAUR R/B 3.9 12:27:26 14° NNW 12:34:38 51° NE 12:43:13 10° SE
USA 234 3.6 12:31:16 10° NE 12:37:45 64° SE 12:44:12 10° SSW
deb Chang Zheng 4 3.6 12:35:13 10° NNE 12:39:34 76° ESE 12:43:53 10° S
H-2A R/B 4.3 12:36:09 10° S 12:36:44 14° SSW 12:36:44 14° SSW
FALCON 9 DEB 4.3 12:41:02 38° SE 12:41:02 38° SE 12:44:00 10° ENE
Delta 2 Rocket 3.5 12:42:32 69° WNW 12:43:07 89° NNE 12:47:34 10° ESE
Meteor 1-31 Rocket 3.0 12:41:00 10° N 12:45:38 55° SSW 12:48:39 10° SSW
Cosmos 773 Rocket 3.9 12:44:16 32° NNW 12:46:46 83° WSW 12:52:00 10° SSE
NOSS 3-2 (A) 4.1 12:43:27 21° NNW 12:49:19 89° ENE 12:58:01 10° SSE
Nadezhda 1 Rocket 4.0 12:45:40 11° NNW 12:51:33 57° W 12:57:38 10° SSW
Lacrosse 5 1.8 12:49:39 22° SW 12:52:58 89° SE 12:58:04 10° NE
Cosmos 1603 4.2 12:50:54 10° NNW 12:56:22 59° ENE 13:01:55 10° SSE
ALOS 3.6 12:52:16 10° N 13:00:20 14° SW 13:01:02 10° SW
Lacrosse 4 Rocket 3.8 12:56:38 10° N 12:59:56 21° ENE 13:03:16 10° ESE
FENGYUN 3A 3.9 12:56:27 10° N 13:01:30 42° WNW 13:06:31 10° SW
USA 238 DEB 3.8 12:58:32 17° NNW 13:04:28 84° WSW 13:12:05 10° SSE
USA 238 3.8 12:58:36 17° NNW 13:04:34 85° WSW 13:12:11 10° SSE
CZ-4B R/B 1.3 13:01:36 10° S 13:04:31 55° WSW 13:04:31 55° WSW
Cosmos 1943 3.6 13:01:01 10° NNW 13:06:42 64° ENE 13:12:19 10° SSE
Cosmos 1461 4.2 13:05:31 11° NNW 13:09:46 42° ENE 13:14:00 10° SE
FALCON 9 DEB 2.8 13:08:39 34° SW 13:09:54 85° SE 13:13:07 10° NE
Cosmos 1151 Rocket 3.4 13:05:54 10° N 13:10:08 63° E 13:14:21 10° SSE
Cosmos 489 Rocket 4.4 13:04:36 10° NNW 13:10:54 77° WSW 13:17:13 10° S
Cosmos 1633 2.5 13:08:27 10° SSW 13:11:54 54° W 13:15:21 10° N
FALCON 9 DEB 2.7 13:11:55 36° SW 13:13:05 80° NW 13:16:18 10° NE
OAO 2 Rocket 3.3 13:11:59 25° WSW 13:14:56 87° SSE 13:20:06 10° E
[s.n.71836] 2.6 13:15:30 49° SSW 13:15:30 49° SSW 13:17:47 10° SSE
[s.n.71840] 2.6 13:15:30 49° SSW 13:15:30 49° SSW 13:17:47 10° SSE
[s.n.71868] 2.6 13:15:30 49° SSW 13:15:30 49° SSW 13:17:48 10° SSE
[s.n.71845] 2.6 13:15:31 49° SSW 13:15:31 49° SSW 13:17:48 10° SSE
[s.n.71870] 2.6 13:15:31 49° SSW 13:15:31 49° SSW 13:17:48 10° SSE
[s.n.71875] 2.6 13:15:31 49° SSW 13:15:31 49° SSW 13:17:48 10° SSE
[s.n.71856] 2.6 13:15:31 49° SSW 13:15:31 49° SSW 13:17:49 10° SSE
[s.n.71863] 2.6 13:15:31 49° SSW 13:15:31 49° SSW 13:17:49 10° SSE
[s.n.71879] 2.6 13:15:31 49° SSW 13:15:31 49° SSW 13:17:49 10° SSE
[s.n.71854] 2.6 13:15:31 49° SSW 13:15:31 49° SSW 13:17:49 10° SSE
[s.n.71842] 2.6 13:15:31 49° SSW 13:15:31 49° SSW 13:17:49 10° SSE
[s.n.71858] 2.6 13:15:31 49° SSW 13:15:31 49° SSW 13:17:49 10° SSE
[s.n.71895] 2.6 13:15:31 49° SSW 13:15:31 49° SSW 13:17:49 10° SSE
[s.n.71873] 2.6 13:15:31 49° SSW 13:15:31 49° SSW 13:17:49 10° SSE
[s.n.71849] 2.6 13:15:31 49° SSW 13:15:31 49° SSW 13:17:49 10° SSE
[s.n.71843] 2.6 13:15:31 49° SSW 13:15:31 49° SSW 13:17:49 10° SSE
[s.n.71888] 2.6 13:15:32 49° SSW 13:15:32 49° SSW 13:17:49 10° SSE
[s.n.71861] 2.6 13:15:32 49° SSW 13:15:32 49° SSW 13:17:49 10° SSE
[s.n.71907] 2.6 13:15:32 49° SSW 13:15:32 49° SSW 13:17:49 10° SSE
[s.n.71857] 2.6 13:15:32 49° SSW 13:15:32 49° SSW 13:17:49 10° SSE
[s.n.71787] 2.6 13:15:32 49° SSW 13:15:32 49° SSW 13:17:50 10° SSE
[s.n.71900] 2.6 13:15:32 49° SSW 13:15:32 49° SSW 13:17:50 10° SSE
[s.n.71890] 2.6 13:15:32 49° SSW 13:15:32 49° SSW 13:17:50 10° SSE
[s.n.71850] 2.6 13:15:32 49° SSW 13:15:32 49° SSW 13:17:50 10° SSE
[s.n.71846] 2.6 13:15:32 49° SSW 13:15:32 49° SSW 13:17:50 10° SSE
[s.n.71927] 2.6 13:15:32 49° SSW 13:15:32 49° SSW 13:17:50 10° SSE
[s.n.71777] 2.6 13:15:33 49° SSW 13:15:33 49° SSW 13:17:50 10° SSE
[s.n.71844] 2.6 13:15:33 49° SSW 13:15:33 49° SSW 13:17:50 10° SSE
[s.n.71876] 2.6 13:15:32 49° SSW 13:15:32 49° SSW 13:17:51 10° SSE
[s.n.71866] 2.6 13:15:33 49° SSW 13:15:33 49° SSW 13:17:51 10° SSE
[s.n.71887] 2.6 13:15:33 49° SSW 13:15:33 49° SSW 13:17:51 10° SSE
[s.n.71838] 2.6 13:15:33 49° SSW 13:15:33 49° SSW 13:17:51 10° SSE
[s.n.71862] 2.6 13:15:33 49° SSW 13:15:33 49° SSW 13:17:51 10° SSE
[s.n.71864] 2.6 13:15:33 49° SSW 13:15:33 49° SSW 13:17:51 10° SSE
[s.n.71877] 2.6 13:15:33 49° SSW 13:15:33 49° SSW 13:17:51 10° SSE
[s.n.71812] 2.6 13:15:34 49° SSW 13:15:34 49° SSW 13:17:51 10° SSE
[s.n.71867] 2.6 13:15:34 49° SSW 13:15:34 49° SSW 13:17:51 10° SSE
[s.n.71912] 2.6 13:15:34 49° SSW 13:15:34 49° SSW 13:17:52 10° SSE
[s.n.71785] 2.6 13:15:34 49° SSW 13:15:34 49° SSW 13:17:52 10° SSE
[s.n.71881] 2.6 13:15:34 49° SSW 13:15:34 49° SSW 13:17:52 10° SSE
[s.n.71884] 2.6 13:15:34 49° SSW 13:15:34 49° SSW 13:17:52 10° SSE
[s.n.71860] 2.6 13:15:34 49° SSW 13:15:34 49° SSW 13:17:52 10° SSE
[s.n.71779] 2.6 13:15:34 49° SSW 13:15:34 49° SSW 13:17:52 10° SSE
[s.n.71871] 2.6 13:15:34 49° SSW 13:15:34 49° SSW 13:17:52 10° SSE
[s.n.71889] 2.6 13:15:34 49° SSW 13:15:34 49° SSW 13:17:52 10° SSE
[s.n.71855] 2.6 13:15:34 49° SSW 13:15:34 49° SSW 13:17:52 10° SSE
[s.n.71885] 2.6 13:15:34 49° SSW 13:15:34 49° SSW 13:17:53 10° SSE
[s.n.71891] 2.6 13:15:35 49° SSW 13:15:35 49° SSW 13:17:53 10° SSE
[s.n.71859] 2.6 13:15:35 49° SSW 13:15:35 49° SSW 13:17:53 10° SSE
[s.n.71913] 2.6 13:15:35 49° SSW 13:15:35 49° SSW 13:17:53 10° SSE
[s.n.71878] 2.6 13:15:35 49° SSW 13:15:35 49° SSW 13:17:54 10° SSE
[s.n.71869] 2.6 13:15:36 49° SSW 13:15:36 49° SSW 13:17:54 10° SSE
CZ-4B R/B 3.0 13:11:13 10° N 13:15:42 71° WNW 13:20:03 10° SSW
ADEOS 4.2 13:11:20 10° N 13:15:58 33° WNW 13:20:34 10° SW
Milstar 3 Cent rocket 4.0 13:10:23 18° WSW 13:16:34 67° S 13:33:06 10° E
SAR-Lupe-4 3.4 13:13:38 10° S 13:17:11 82° WSW 13:20:46 10° NNW
Cosmos 1328 Rocket 3.8 13:14:18 10° N 13:18:42 71° E 13:23:06 10° SSE
Atlas Centaur 2 2.9 13:13:27 12° WSW 13:18:47 45° SSE 13:23:25 10° E
Okean 3 Rocket 3.9 13:18:46 10° SSW 13:22:52 40° W 13:26:59 10° N
SJ 16-02 1.6 13:21:15 10° SW 13:25:26 43° WNW 13:29:40 10° N
Cosmos 1766 Rocket 4.0 13:22:39 10° SSW 13:26:49 39° W 13:31:03 10° N
PSLV R/B 3.9 13:23:31 10° SSE 13:27:41 88° ENE 13:31:50 10° NNW
YAOGAN 6 4.0 13:24:47 10° NNE 13:28:06 39° E 13:31:22 10° S
Meteor 2-17 Rocket 4.3 13:22:41 10° SSW 13:28:43 72° W 13:34:45 10° N
MOS 1 Rocket 4.4 13:25:17 10° SE 13:29:40 46° ENE 13:34:19 10° N
Cosmos 1184 Rocket 3.4 13:28:12 10° SW 13:31:10 32° WNW 13:34:09 10° NNW
Cosmos 1743 Rocket 4.4 13:27:08 10° S 13:31:26 55° E 13:35:48 10° NNE
FALCON 9 DEB 3.1 13:29:47 18° WSW 13:31:56 50° NW 13:35:04 10° NE
Cosmos 389 Rocket 4.5 13:33:40 13° WSW 13:33:40 13° WSW 13:34:27 10° SW
COSMO-SKYMED 1 2.6 13:28:08 10° S 13:32:23 57° W 13:36:41 10° NNW
H-2A R/B 2.7 13:29:14 10° N 13:33:09 84° WNW 13:37:00 10° SSW
CZ-4C R/B 1.8 13:29:25 10° SW 13:34:02 68° WNW 13:39:29 10° NNE
SAR-Lupe-1 4.3 13:30:51 10° S 13:34:18 48° W 13:37:47 10° NNW
USA 276 3.8 13:33:43 17° WSW 13:34:32 18° SW 13:36:48 10° S
OAO 1 Rocket 4.4 13:30:24 16° W 13:34:45 87° N 13:40:05 10° E
ERS-2 3.3 13:33:08 10° SSW 13:36:02 22° W 13:37:27 18° WNW
Cosmos 1408 Rocket 3.6 13:31:58 10° SSW 13:36:23 60° W 13:40:48 10° N
Cosmos 1538 Rocket 4.3 13:32:07 10° NNW 13:37:12 47° WSW 13:42:12 10° S
ASTRO E2 3.1 13:35:42 16° W 13:38:42 56° S 13:42:35 10° ESE
Cosmos 1862 4.0 13:38:39 10° S 13:42:37 60° E 13:46:37 10° NNE
Cosmos 158 Rocket 4.0 13:41:26 10° NNW 13:46:22 81° ENE 13:51:21 10° SSE
OAO 3 Rocket 3.6 13:42:38 14° W 13:46:30 50° SSW 13:51:05 10° SE
NOSS 7 (H) 4.4 13:42:45 10° SSW 13:46:50 78° WNW 13:49:59 10° NNE
Cosmos 2181 Rocket 4.1 13:40:54 10° NNW 13:46:55 55° W 13:52:52 10° SSW
BREEZE M DEB (TANK) 3.4 13:35:47 10° SW 13:48:21 64° NW 13:51:53 10° NE
Cosmos 1844 Rocket 2.7 13:45:36 10° SSW 13:51:14 84° WNW 13:56:55 10° NNE
ATLAS 3B R/B 3.9 13:44:47 10° NNW 13:51:21 41° NE 13:58:07 10° ESE
SMAP 4.1 13:46:53 10° NNE 13:51:25 51° E 13:55:55 10° S
PAYLOAD B 4.5 13:47:23 10° NNE 13:52:55 75° ESE 13:58:23 10° S
Cosmos 1844 3.8 13:47:37 10° SSW 13:53:09 80° ESE 13:58:44 10° NNE
Cosmos 2154 Rocket 4.2 13:47:12 10° S 13:53:22 77° E 13:59:36 10° N
Cosmos 1689 Rocket 3.0 13:51:03 10° SSW 13:53:32 27° W 13:56:03 10° NW
Cosmos 1898 Rocket 3.6 13:50:58 10° SSW 13:56:08 56° WNW 14:01:23 10° N
Meteor 1-26 Rocket 4.5 13:50:55 10° NNW 13:56:27 49° W 14:01:47 10° SSW
CZ-4B DEB 4.2 13:51:06 10° N 13:56:34 81° WNW 14:02:02 10° SSW
GPS 2-04 Rocket1 2.6 13:55:45 10° W 13:59:36 69° N 14:03:16 10° ENE
ATLAS CENTAUR R/B 3.8 14:01:59 10° NNE 14:04:28 16° NE 14:06:59 10° E
CZ-3A R/B 4.4 14:02:27 10° WSW 14:06:30 43° S 14:26:47 10° ESE
PSLV R/B 4.3 14:03:07 10° N 14:06:41 37° WNW 14:10:10 10° SW
Cosmos 2084 4.3 14:04:53 10° NW 14:09:01 36° WSW 14:13:07 10° S
Cosmos 2228 Rocket 3.5 14:04:52 10° N 14:09:16 67° E 14:13:37 10° SSE
Chunghua 1 4.4 14:07:04 10° W 14:10:43 82° N 14:14:22 10° E
Envisat 3.1 14:07:11 10° N 14:12:08 54° WNW 14:17:03 10° SSW
